Simultaneous Nadir Overpasses (SNOs) Predictions

Prediction of SNOs between AURA and NPP Satellite Orbit:

Table of predicted SNOs for the next 14.0 days since TLE Epoch: 5/16/2015
Index Date (AURA) Time (AURA) Lat,Lon (AURA) SZA (AURA ) Date (NPP) Time (NPP) Lat,Lon (NPP) SZA (NPP ) Distance(km) Time Diff (sec)
1 05/17/2015 01:14:41 -78.54,-127.51 105.34 05/17/2015 01:14:31 -78.55,-127.47 105.34 0.92 10
2 05/17/2015 02:03:58 78.91, 42.12 74.18 05/17/2015 02:05:06 78.91, 42.11 74.13 0.26 68
3 05/19/2015 16:41:45 78.29, 179.45 74.44 05/19/2015 16:40:47 78.29, 179.54 74.46 2.17 58
4 05/19/2015 17:31:02 -78.73, -10.64 106.15 05/19/2015 17:31:21 -78.73, -10.57 106.18 1.79 19
5 05/22/2015 08:58:09 78.29, -64.65 73.91 05/22/2015 08:57:42 78.28, -64.77 73.95 2.73 27
6 05/22/2015
